Regional Weather Roundup
Issued by NWS

Home | Current Version | Previous Version | Graphics & Text | Print | Product List | Glossary On
Versions: 1 2 3 4 5 6 7 8 9 10 11 12 13 14 15 16 17 18 19 20 21 22 23 24 25 26 27 28 29 30 31 32 33 34 35 36 37 38 39 40 41 42 43 44 45 46 47 48 49 50
000
ASUS43 KMKX 280811
RWRWI

WISCONSIN REGIONAL WEATHER ROUNDUP
NATIONAL WEATHER SERVICE MILWAUKEE/SULLIVAN WI
300 AM CDT MON JUL 28 2014

NOTE: "FAIR" INDICATES FEW OR NO CLOUDS BELOW 12,000 FEET WITH NO
SIGNIFICANT WEATHER AND/OR OBSTRUCTIONS TO VISIBILITY.

WIZ001-002-006>008-014>016-023>028-280900-
NORTHWEST WISCONSIN

CITY           SKY/WX    TMP DP  RH WIND       PRES   REMARKS
SUPERIOR ARPT  CLOUDY    52  52  99 CALM      30.13R
ASHLAND        CLEAR     51  49  92 W3        30.12R
HAYWARD        FOG       46  46 100 CALM      30.14R VSB 1/4
SIREN          PTCLDY    55  54  96 CALM      30.14R
RICE LAKE      CLOUDY    54  53  95 CALM      30.15S
LADYSMITH      CLEAR     54  51  92 NW7       30.14R
EAU CLAIRE     CLOUDY    59  54  83 CALM      30.11R
MENOMONIE      PTSUNNY   57  54  90 CALM      30.13S
NEW RICHMOND   MOCLDY    57  56  97 NW3       30.14S
OSCEOLA        CLOUDY    58  58 100 CALM      30.16S
$$

WIZ003>005-009-010-017-018-280900-
NORTH CENTRAL WISCONSIN

CITY           SKY/WX    TMP DP  RH WIND       PRES   REMARKS
WOODRUFF       CLEAR     48  46  91 CALM      30.09R
RHINELANDER    CLEAR     51  48  89 NW3       30.08R
EAGLE RIVER    CLEAR     45  45 100 CALM      30.07R
LAND O LAKES   CLEAR     50  47  88 N3        30.09R
PHILLIPS       CLEAR     47  47  99 NW3       30.11R
TOMAHAWK       CLEAR     46  45  95 W3        30.09S
MEDFORD        CLEAR     49  48  95 NW5       30.10R
MERRILL        CLEAR     50  49  99 NW5       30.08R
$$

WIZ029-030-035-036-043>047-280900-
CENTRAL WISCONSIN

CITY           SKY/WX    TMP DP  RH WIND       PRES   REMARKS
WAUSAU         CLEAR     52  50  93 NW8       30.06R
MOSINEE        CLEAR     52  52 100 NW8       30.09R
MARSHFIELD     CLEAR     53  50  89 NW10      30.09R
STEVENS POINT  CLEAR     51  49  93 NW6       30.07R
WAUPACA        CLEAR     56  52  86 NW7       30.04R
WAUTOMA        CLEAR     55  51  86 NW5       30.05S
WISC RAPIDS    CLEAR     54  51  90 MISG      30.08S
CAMP DOUGLAS   CLEAR     50  50 100 W3        30.08R
$$

WIZ011>013-019>022-031-037>040-048>050-280900-
NORTHEAST WISCONSIN

CITY           SKY/WX    TMP DP  RH WIND       PRES   REMARKS
ANTIGO         CLEAR     48  47  96 W6        30.07R
STURGEON BAY   CLEAR     54  45  71 N18G26    29.98S
GREEN BAY      CLEAR     54  46  74 N9        30.01R
MANITOWOC      CLEAR     56  48  74 N13       29.98R
APPLETON       CLEAR     54  48  82 N9        30.02S
CLINTONVILLE   CLEAR     54  48  82 NW6       30.04R
OSHKOSH        CLEAR     57  50  77 N13       30.01R
$$

WIZ032>034-041-042-053>061-280900-
SOUTHWEST WISCONSIN

CITY           SKY/WX    TMP DP  RH WIND       PRES   REMARKS
LA CROSSE      CLEAR     57  52  83 N8        30.10R
SPARTA         CLEAR     54  51  90 N5        30.10S
VIROQUA        FAIR      55  54  99 N7        30.10R
BOSCOBEL       CLEAR     60  53  77 N3        30.07R
PRAIRIE DU CHI CLEAR     61  52  72 N5        30.08R
PLATTEVILLE    FAIR      57  54  89 N6        30.06S
$$

WIZ056-057-062-063-064-067-068-280900-
SOUTH CENTRAL WISCONSIN

CITY           SKY/WX    TMP DP  RH WIND       PRES   REMARKS
BARABOO/DELLS  CLEAR     55  51  85 NW6       30.05S
LONE ROCK      CLEAR     62  53  72 NW8       30.06R
WATERTOWN      CLEAR     57  52  83 N10       30.00S
MADISON        CLEAR     58  52  80 N9        30.03R
MIDDLETON      FAIR      58  53  84 N6        30.04R
MONROE         CLEAR     57  54  88 NW6       30.03R
JANESVILLE     CLEAR     59  52  77 N7        30.00R
$$

WIZ051-052-058>065-066-070>072-280900-
SOUTHEAST WISCONSIN

CITY           SKY/WX    TMP DP  RH WIND       PRES   REMARKS
MILWAUKEE      PTCLDY    59  50  72 NW12      29.96R
WAUKESHA       CLEAR     55  46  71 NW8       29.99R
MILWAUKEE/TIMM CLEAR     57  46  67 N9        29.98R
RACINE         CLEAR     60  50  69 N12       29.97R
BURLINGTON     PTCLDY    54  52  94 NW7       29.98R
KENOSHA        CLEAR     58  52  80 NW6       29.96R
FOND DU LAC    CLEAR     56  49  77 NW10      30.01R
SHEBOYGAN      CLEAR     56  48  74 N13       29.97R
WEST BEND      CLEAR     54  46  76 NW8       29.99R
JUNEAU         CLEAR     55  50  82 NW8       30.02S
$$

LSZ147-162-280900-
LAKE SUPERIOR

STATION/POSITION TIME  TEMP    WIND        PRES    WAVE
                       AIR SEA DIR/SP/G            HT/PER
                 (UTC) (F)     (DEG/KT/KT) (MB)    (FT/S)
W MID LAKE BUOY  0750   48 42  270/  8/  8 1018.6R   1/ 4
PORT WING        0700   53     180/  3/  4 1020.0R
SAXON HARBOR     0700             CALM     1019.0
$$

LMZ867-665-643>646-280900-
LAKE MICHIGAN

STATION/POSITION TIME  TEMP    WIND        PRES    WAVE
                       AIR SEA DIR/SP/G            HT/PER
                 (UTC) (F)     (DEG/KT/KT) (MB)    (FT/S)
N MID LAKE BUOY  0750   54 54  350/ 21/ 25 1013.1R   4/ 5
NORTHPORT PIER   0700   57     340/ 22/ 27 1014.9S
KEWAUNEE LAKESHO 0700   57     340/  9/ 15 1015.2R
SHEBOYGAN LAKESH 0800   59     330/ 15/ 16 1014.7R
PORT WASHINGTON  0740   60     320/  7/ 12 1015.2R
ATWATER BUOY     0800   61     340/ 14     1015.4R
MILWAUKEE LAKESH 0700   61     340/ 11/ 14   N/A
S MID LAKE BUOY  0750   60 60  340/ 23/ 27 1012.2R   7/ 7
KENOSHA   LAKESH 0800   61     340/ 13/ 16 1013.9R
$$

TC  - TEMPERATURE IN CELSIUS
VSB - VISIBILITY IN STATUTE MILES
WCI - WIND CHILL INDEX
HX  - HEAT INDEX




USA.gov is the U.S. government's official web portal to all federal, state and local government web resources and services.